| time (UTC) | temp F | wind direction | speed MPH | gust MPH | rain 1hr in | rain 24hr in | rain mn in | humidity % | barometer mb |
| 20260902183055 | 68 | 281 | 0.0 | 0.0 | 0.00 | 0.00 | 0.00 | 67 | 1018.9 |
| 20260902181556 | 69 | 261 | 0.0 | 0.0 | 0.00 | 0.00 | 0.00 | 65 | 1018.7 |
| 20260902180056 | 70 | 259 | 0.0 | 0.0 | 0.00 | 0.00 | 0.00 | 63 | 1018.5 |
| 20260902174552 | 71 | 258 | 0.0 | 0.0 | 0.00 | 0.00 | 0.00 | 62 | 1018.4 |
| 20260902173151 | 71 | 260 | 0.0 | 0.0 | 0.00 | 0.00 | 0.00 | 61 | 1018.5 |
| 20260902171552 | 72 | 282 | 0.0 | 0.0 | 0.00 | 0.00 | 0.00 | 59 | 1018.4 |
| 20260902170050 | 72 | 256 | 0.0 | 0.0 | 0.00 | 0.00 | 0.00 | 60 | 1018.3 |
| 20260902164552 | 72 | 249 | 0.0 | 0.0 | 0.00 | 0.00 | 0.00 | 58 | 1018.3 |
| 20260902163048 | 73 | 246 | 0.0 | 0.0 | 0.00 | 0.00 | 0.00 | 57 | 1018.4 |
| 20260902161548 | 73 | 269 | 0.0 | 0.0 | 0.00 | 0.00 | 0.00 | 56 | 1018.3 |
| 20260902154545 | 74 | 227 | 4.0 | 10.0 | 0.00 | 0.00 | 0.00 | 54 | 1018.3 |
| 20260902153047 | 75 | 221 | 0.0 | 0.0 | 0.00 | 0.00 | 0.00 | 51 | 1018.3 |
| 20260902151551 | 75 | 215 | 0.0 | 0.0 | 0.00 | 0.00 | 0.00 | 50 | 1018.4 |
| 20260902150043 | 76 | 215 | 0.0 | 0.0 | 0.00 | 0.00 | 0.00 | 50 | 1018.4 |
| 20260902144541 | 76 | 207 | 0.0 | 0.0 | 0.00 | 0.00 | 0.00 | 50 | 1018.4 |
| 20260902143040 | 76 | 360 | 0.0 | 1.0 | 0.00 | 0.00 | 0.00 | 50 | 1018.4 |
| 20260902141542 | 77 | 143 | 0.0 | 1.0 | 0.00 | 0.00 | 0.00 | 49 | 1018.5 |
| 20260902140039 | 77 | 201 | 0.0 | 11.0 | 0.00 | 0.00 | 0.00 | 48 | 1018.5 |
| 20260902134539 | 77 | 360 | 0.0 | 8.0 | 0.00 | 0.00 | 0.00 | 49 | 1018.5 |
| 20260902133034 | 76 | 194 | 3.0 | 10.0 | 0.00 | 0.00 | 0.00 | 52 | 1018.7 |
| 20260902131538 | 75 | 232 | 0.0 | 0.0 | 0.00 | 0.00 | 0.00 | 51 | 1018.8 |
| 20260902130033 | 76 | 212 | 0.0 | 0.0 | 0.00 | 0.00 | 0.00 | 52 | 1018.9 |
| 20260902124532 | 75 | 360 | 0.0 | 0.0 | 0.00 | 0.00 | 0.00 | 54 | 1018.8 |
| 20260902123031 | 75 | 360 | 0.0 | 0.0 | 0.00 | 0.00 | 0.00 | 56 | 1018.8 |
| 20260902121530 | 74 | 200 | 0.0 | 0.0 | 0.00 | 0.00 | 0.00 | 56 | 1019.0 |
| 20260902120029 | 76 | 181 | 0.0 | 7.0 | 0.00 | 0.00 | 0.00 | 52 | 1019.1 |
| 20260902114529 | 78 | 193 | 0.0 | 0.0 | 0.00 | 0.00 | 0.00 | 52 | 1019.3 |
| 20260902113022 | 76 | 227 | 0.0 | 0.0 | 0.00 | 0.00 | 0.00 | 56 | 1019.4 |
| 20260902111518 | 73 | 275 | 0.0 | 0.0 | 0.00 | 0.00 | 0.00 | 66 | 1019.6 |
| 20260902110028 | 73 | 273 | 0.0 | 0.0 | 0.00 | 0.00 | 0.00 | 60 | 1019.7 |
| 20260902104532 | 73 | 273 | 0.0 | 0.0 | 0.00 | 0.00 | 0.00 | 66 | 1019.8 |
| 20260902103011 | 71 | 274 | 0.0 | 0.0 | 0.00 | 0.00 | 0.00 | 66 | 1020.0 |
| 20260902101505 | 69 | 289 | 0.0 | 0.0 | 0.00 | 0.00 | 0.00 | 70 | 1020.2 |
| 20260902100002 | 67 | 249 | 0.0 | 0.0 | 0.00 | 0.00 | 0.00 | 71 | 1020.4 |
| 20260902094603 | 67 | 250 | 0.0 | 0.0 | 0.00 | 0.00 | 0.00 | 72 | 1020.6 |
| 20260902093117 | 66 | 250 | 0.0 | 0.0 | 0.00 | 0.00 | 0.00 | 74 | 1020.3 |
| 20260902091557 | 66 | 250 | 0.0 | 0.0 | 0.00 | 0.00 | 0.00 | 75 | 1020.5 |
| 20260902090055 | 65 | 251 | 0.0 | 0.0 | 0.00 | 0.00 | 0.00 | 75 | 1020.3 |
| 20260902084552 | 64 | 250 | 0.0 | 0.0 | 0.00 | 0.00 | 0.00 | 78 | 1020.3 |
| 20260902083059 | 63 | 250 | 0.0 | 0.0 | 0.00 | 0.00 | 0.00 | 80 | 1020.4 |
| 20260902081603 | 62 | 252 | 0.0 | 0.0 | 0.00 | 0.00 | 0.00 | 81 | 1020.4 |
| 20260902080043 | 61 | 252 | 0.0 | 0.0 | 0.00 | 0.00 | 0.00 | 83 | 1020.3 |
| 20260902074531 | 60 | 254 | 0.0 | 0.0 | 0.00 | 0.00 | 0.00 | 84 | 1020.3 |
| 20260902073028 | 59 | 273 | 0.0 | 0.0 | 0.00 | 0.00 | 0.00 | 85 | 1020.2 |
| 20260902071534 | 58 | 252 | 0.0 | 0.0 | 0.00 | 0.00 | 0.00 | 84 | 1020.1 |
| 20260902070013 | 57 | 252 | 0.0 | 0.0 | 0.00 | 0.00 | 0.00 | 83 | 1020.1 |
| 20260902064514 | 56 | 253 | 0.0 | 0.0 | 0.00 | 0.00 | 0.00 | 81 | 1020.1 |
| 20260902063009 | 55 | 250 | 0.0 | 0.0 | 0.00 | 0.00 | 0.00 | 80 | 1020.1 |
| 20260902061508 | 54 | 248 | 0.0 | 0.0 | 0.00 | 0.00 | 0.00 | 80 | 1019.9 |
| 20260902060004 | 53 | 250 | 0.0 | 0.0 | 0.00 | 0.00 | 0.00 | 80 | 1020.1 |
| 20260902054501 | 53 | 250 | 0.0 | 0.0 | 0.00 | 0.00 | 0.00 | 81 | 1020.2 |
| 20260902053059 | 53 | 253 | 0.0 | 0.0 | 0.00 | 0.00 | 0.00 | 81 | 1020.1 |
| 20260902051607 | 52 | 252 | 0.0 | 0.0 | 0.00 | 0.00 | 0.00 | 82 | 1020.0 |
| 20260902050055 | 51 | 250 | 0.0 | 0.0 | 0.00 | 0.00 | 0.00 | 83 | 1020.0 |
| 20260902044554 | 51 | 250 | 0.0 | 0.0 | 0.00 | 0.00 | 0.00 | 83 | 1019.8 |
| 20260902043153 | 51 | 250 | 0.0 | 0.0 | 0.00 | 0.00 | 0.00 | 84 | 1019.9 |
| 20260902041550 | 51 | 271 | 0.0 | 0.0 | 0.00 | 0.00 | 0.00 | 84 | 1019.9 |
| 20260902040049 | 51 | 271 | 0.0 | 0.0 | 0.00 | 0.00 | 0.00 | 85 | 1019.8 |
| 20260902034548 | 52 | 254 | 0.0 | 0.0 | 0.00 | 0.00 | 0.00 | 84 | 1019.8 |
| 20260902033047 | 52 | 251 | 0.0 | 0.0 | 0.00 | 0.00 | 0.00 | 85 | 1019.9 |
| 20260902031546 | 52 | 250 | 0.0 | 0.0 | 0.00 | 0.00 | 0.00 | 85 | 1019.9 |
| 20260902030044 | 52 | 248 | 0.0 | 0.0 | 0.00 | 0.00 | 0.00 | 85 | 1019.8 |
| 20260902024543 | 53 | 271 | 0.0 | 0.0 | 0.00 | 0.00 | 0.00 | 85 | 1019.9 |
| 20260902023043 | 53 | 272 | 0.0 | 0.0 | 0.00 | 0.00 | 0.00 | 85 | 1019.9 |
| 20260902021545 | 53 | 254 | 0.0 | 0.0 | 0.00 | 0.00 | 0.00 | 85 | 1020.0 |
| 20260902020045 | 53 | 253 | 0.0 | 0.0 | 0.00 | 0.00 | 0.00 | 85 | 1020.0 |
| 20260902014548 | 54 | 251 | 0.0 | 0.0 | 0.00 | 0.00 | 0.00 | 85 | 1020.1 |
| 20260902013034 | 54 | 251 | 0.0 | 0.0 | 0.00 | 0.00 | 0.00 | 85 | 1019.9 |
| 20260902011535 | 54 | 250 | 0.0 | 0.0 | 0.00 | 0.00 | 0.00 | 85 | 1020.0 |
| 20260902010031 | 55 | 251 | 0.0 | 0.0 | 0.00 | 0.00 | 0.00 | 85 | 1020.0 |
| 20260902004531 | 55 | 274 | 0.0 | 0.0 | 0.00 | 0.00 | 0.00 | 84 | 1020.0 |
| 20260902003028 | 55 | 272 | 0.0 | 0.0 | 0.00 | 0.00 | 0.00 | 83 | 1020.1 |
| 20260902001525 | 56 | 271 | 0.0 | 0.0 | 0.00 | 0.00 | 0.00 | 83 | 1020.0 |
| 20260902000035 | 56 | 252 | 0.0 | 0.0 | 0.00 | 0.00 | 0.00 | 83 | 1020.1 |
| 20260901234537 | 57 | 254 | 0.0 | 0.0 | 0.00 | 0.00 | 0.00 | 82 | 1020.0 |
| 20260901233019 | 57 | 254 | 0.0 | 0.0 | 0.00 | 0.00 | 0.00 | 82 | 1020.0 |
| 20260901231518 | 57 | 252 | 0.0 | 0.0 | 0.00 | 0.00 | 0.00 | 81 | 1020.0 |
| 20260901230017 | 58 | 251 | 0.0 | 0.0 | 0.00 | 0.00 | 0.00 | 81 | 1020.0 |
| 20260901224515 | 58 | 248 | 0.0 | 0.0 | 0.00 | 0.00 | 0.00 | 81 | 1020.1 |
| 20260901223013 | 58 | 272 | 0.0 | 0.0 | 0.00 | 0.00 | 0.00 | 80 | 1020.1 |
| 20260901221534 | 58 | 273 | 0.0 | 0.0 | 0.00 | 0.00 | 0.00 | 79 | 1020.1 |
| 20260901220012 | 59 | 274 | 0.0 | 0.0 | 0.00 | 0.00 | 0.00 | 78 | 1020.1 |
| 20260901214506 | 60 | 254 | 0.0 | 0.0 | 0.00 | 0.00 | 0.00 | 76 | 1020.2 |
| 20260901213005 | 60 | 252 | 0.0 | 0.0 | 0.00 | 0.00 | 0.00 | 75 | 1020.2 |
| 20260901211505 | 61 | 251 | 0.0 | 0.0 | 0.00 | 0.00 | 0.00 | 74 | 1020.1 |
| 20260901210007 | 62 | 252 | 0.0 | 0.0 | 0.00 | 0.00 | 0.00 | 72 | 1020.0 |
| 20260901204508 | 63 | 273 | 0.0 | 0.0 | 0.00 | 0.00 | 0.00 | 72 | 1020.0 |
| 20260901203003 | 63 | 254 | 0.0 | 0.0 | 0.00 | 0.00 | 0.00 | 71 | 1020.0 |
| 20260901201504 | 63 | 252 | 0.0 | 0.0 | 0.00 | 0.00 | 0.00 | 71 | 1020.0 |
| 20260901200002 | 62 | 250 | 0.0 | 0.0 | 0.00 | 0.00 | 0.00 | 72 | 1019.9 |
| 20260901194501 | 63 | 272 | 0.0 | 0.0 | 0.00 | 0.00 | 0.00 | 72 | 1019.8 |
| 20260901193109 | 64 | 248 | 0.0 | 0.0 | 0.00 | 0.00 | 0.00 | 71 | 1019.8 |
| 20260901191600 | 64 | 272 | 0.0 | 0.0 | 0.00 | 0.00 | 0.00 | 71 | 1019.7 |
| 20260901190100 | 64 | 254 | 0.0 | 0.0 | 0.00 | 0.00 | 0.00 | 70 | 1019.7 |
| 20260901184607 | 65 | 252 | 0.0 | 0.0 | 0.00 | 0.00 | 0.00 | 69 | 1019.5 |